{"data":{"norad_id":59306,"intl_designator":"2024-056L","name":"STARLINK-31480","alt_names":[],"object_type":"PAYLOAD","status":"ACTIVE","operator":null,"country":"US","launch_date":"2024-03-24","launch_site_code":"AFETR","launch_vehicle":null,"mission":null,"orbit_class":"UNKNOWN","rcs_meters":null,"size_class":null,"mass_kg":null,"dimensions":null,"purposes":["comms"],"wikipedia_slug":null,"has_3d_model":false,"image_url":null,"decayed_at":null,"tle_current":{"epoch":"2026-09-21T04:20:50.895168Z","epoch_age_seconds":103424,"freshness":"FRESH","line1":"1 59306U 24056L   26264.18114462  .00000760  00000+0  37141-4 0  9999","line2":"2 59306  43.0022 206.5539 0001174 265.9231  94.1487 15.27577558141053","mean_motion":15.27577558,"eccentricity":0.0001174,"inclination_deg":43.0022,"raan_deg":206.5539,"arg_perigee_deg":265.9231,"mean_anomaly_deg":94.1487,"bstar":3.7141e-5,"rev_number":14105,"period_min":94.266899409372,"perigee_km":482.25090416977,"apogee_km":483.86191238203,"semimajor_km":6861.1934082759,"source":"CELESTRAK","updated_at":"2026-09-22T09:00:48.893635Z"}}}